SKY738A PGUM-RJTT

Flight info

Callsign SKY738A
Flight time N/A
Altitude 38000
Route TOESS B586 SABRI Y873 FITTO Y87 TOPIT Y875 CADDY/N0450F400 Y875 AROSA
Aircraft B38M/M-SDE3FGHILORVWY/LB1

Departure

Time N/A
Airport Antonio B. Won Pat International Airport (PGUM)

Arrival

Time 2026-05-04 13:09
Airport Tokyo Haneda International Airport (RJTT)
Time Latitude Longitude Altitude Speed Heading
2026-05-04 10:39 18.22217 143.67617 31153 ft 435 kts 344°
2026-05-04 10:39 18.25175 143.66899 31573 ft 437 kts 345°
2026-05-04 10:39 18.29118 143.65941 32103 ft 441 kts 345°
2026-05-04 10:40 18.31143 143.65449 32397 ft 443 kts 344°
2026-05-04 10:40 18.34147 143.64719 32859 ft 444 kts 344°
2026-05-04 10:40 18.37125 143.63995 33253 ft 446 kts 345°
2026-05-04 10:40 18.40162 143.63256 33631 ft 450 kts 345°
2026-05-04 10:41 18.43220 143.62512 34016 ft 452 kts 344°
2026-05-04 10:41 18.46296 143.61763 34310 ft 456 kts 344°
2026-05-04 10:41 18.49398 143.61008 34613 ft 459 kts 344°
2026-05-04 10:41 18.52516 143.60248 34916 ft 462 kts 344°
2026-05-04 10:42 18.55649 143.59484 35288 ft 462 kts 344°
2026-05-04 10:42 18.58781 143.58720 35722 ft 461 kts 343°
2026-05-04 10:42 18.61862 143.57969 36168 ft 460 kts 343°
2026-05-04 10:42 18.64981 143.57208 36624 ft 459 kts 342°
2026-05-04 10:43 18.68088 143.56450 37079 ft 458 kts 342°
2026-05-04 10:44 18.89556 143.51204 38031 ft 450 kts 341°
2026-05-04 10:45 18.92608 143.50456 38028 ft 450 kts 341°
2026-05-04 10:45 18.98711 143.48961 38033 ft 450 kts 342°
2026-05-04 10:46 19.04820 143.47464 38043 ft 451 kts 342°
2026-05-04 10:46 19.10893 143.45974 38041 ft 451 kts 342°
2026-05-04 10:47 19.17008 143.44473 38044 ft 451 kts 342°
2026-05-04 10:47 19.23122 143.42971 38043 ft 450 kts 342°
2026-05-04 10:49 19.47448 143.36983 38052 ft 449 kts 342°
2026-05-04 10:50 19.53534 143.35483 38048 ft 449 kts 342°
2026-05-04 10:52 19.77826 143.29480 38058 ft 449 kts 343°
2026-05-04 10:52 19.83872 143.27983 38054 ft 449 kts 343°
2026-05-04 10:54 20.08235 143.21940 38059 ft 450 kts 343°
2026-05-04 10:56 20.32594 143.15878 38058 ft 451 kts 343°
2026-05-04 10:57 20.38658 143.14365 38065 ft 451 kts 343°
2026-05-04 10:57 20.44760 143.12842 38064 ft 450 kts 343°
2026-05-04 10:58 20.50866 143.11318 38068 ft 451 kts 344°
2026-05-04 10:58 20.56975 143.09790 38067 ft 451 kts 344°
2026-05-04 10:59 20.63042 143.08272 38067 ft 451 kts 344°
2026-05-04 10:59 20.69147 143.06744 38070 ft 451 kts 344°
2026-05-04 11:00 20.75254 143.05214 38069 ft 451 kts 344°
2026-05-04 11:02 20.99650 142.99103 38078 ft 452 kts 345°
2026-05-04 11:05 21.45642 142.88447 38082 ft 451 kts 345°
2026-05-04 11:06 21.51784 142.87017 38085 ft 452 kts 346°
2026-05-04 11:06 21.57928 142.85586 38084 ft 452 kts 346°
2026-05-04 11:10 22.00849 142.75552 38095 ft 452 kts 346°
2026-05-04 11:12 22.25404 142.69783 38095 ft 452 kts 346°
2026-05-04 11:12 22.31515 142.68344 38099 ft 452 kts 346°
2026-05-04 11:13 22.37660 142.66896 38093 ft 452 kts 346°
2026-05-04 11:13 22.43810 142.65445 38099 ft 452 kts 346°
2026-05-04 11:14 22.49959 142.63993 38101 ft 452 kts 346°
2026-05-04 11:16 22.74515 142.58182 38099 ft 453 kts 346°
2026-05-04 11:16 22.80631 142.56732 38098 ft 453 kts 346°
2026-05-04 11:17 22.86786 142.55271 38105 ft 453 kts 346°
2026-05-04 11:19 23.11377 142.49420 38110 ft 453 kts 346°
2026-05-04 11:19 23.17537 142.47950 38110 ft 453 kts 346°
2026-05-04 11:20 23.23699 142.46479 38110 ft 453 kts 346°
2026-05-04 11:20 23.29862 142.45007 38105 ft 453 kts 346°
2026-05-04 11:22 23.54472 142.39112 38103 ft 454 kts 346°
2026-05-04 11:23 23.60639 142.37631 38107 ft 454 kts 346°
2026-05-04 11:25 23.82186 142.32447 38117 ft 454 kts 346°
2026-05-04 11:25 23.88314 142.30969 38115 ft 454 kts 346°
2026-05-04 11:27 24.16037 142.24265 38120 ft 454 kts 346°
2026-05-04 11:28 24.22207 142.22770 38111 ft 454 kts 345°
2026-05-04 11:28 24.28378 142.21272 38115 ft 454 kts 345°
2026-05-04 11:29 24.34508 142.19783 38113 ft 454 kts 345°
2026-05-04 11:29 24.40684 142.18281 38117 ft 455 kts 345°
2026-05-04 11:33 24.83933 142.07728 38119 ft 456 kts 345°
2026-05-04 11:33 24.90090 142.06225 38114 ft 456 kts 345°
2026-05-04 11:34 24.96289 142.04709 38115 ft 456 kts 345°
2026-05-04 11:34 25.02513 142.03312 38118 ft 456 kts 347°
2026-05-04 11:35 25.08751 142.02029 38122 ft 456 kts 347°
2026-05-04 11:35 25.14996 142.00732 38119 ft 457 kts 347°
2026-05-04 11:36 25.21198 141.99442 38118 ft 457 kts 347°
2026-05-04 11:36 25.27446 141.98141 38119 ft 457 kts 347°
2026-05-04 11:37 25.33695 141.96837 38120 ft 457 kts 347°
2026-05-04 11:37 25.39953 141.95532 38119 ft 458 kts 347°
2026-05-04 11:38 25.46173 141.94232 38121 ft 458 kts 347°
2026-05-04 11:38 25.52431 141.92923 38121 ft 458 kts 347°
2026-05-04 11:39 25.58691 141.91612 38122 ft 458 kts 347°
2026-05-04 11:41 25.80558 141.87022 38123 ft 459 kts 346°
2026-05-04 11:41 25.86832 141.85703 38121 ft 459 kts 346°
2026-05-04 11:42 25.93106 141.84381 38121 ft 459 kts 346°
2026-05-04 11:42 25.99340 141.83067 38128 ft 459 kts 346°
2026-05-04 11:43 26.05611 141.81743 38123 ft 460 kts 346°
2026-05-04 11:43 26.11903 141.80413 38122 ft 460 kts 346°
2026-05-04 11:44 26.18142 141.79094 38118 ft 459 kts 346°
2026-05-04 11:44 26.24425 141.77763 38123 ft 460 kts 346°
2026-05-04 11:45 26.30718 141.76429 38123 ft 460 kts 346°
2026-05-04 11:45 26.37011 141.75093 38123 ft 460 kts 346°
2026-05-04 11:46 26.43305 141.73756 38120 ft 460 kts 346°
2026-05-04 11:46 26.49556 141.72426 38120 ft 461 kts 346°
2026-05-04 11:47 26.55856 141.71085 38121 ft 461 kts 346°
2026-05-04 11:47 26.62159 141.69741 38118 ft 461 kts 346°
2026-05-04 11:48 26.68464 141.68395 38127 ft 461 kts 346°
2026-05-04 11:48 26.74729 141.67057 38119 ft 461 kts 346°
2026-05-04 11:49 26.81035 141.65708 38116 ft 462 kts 346°
2026-05-04 11:49 26.87342 141.64358 38113 ft 462 kts 346°
2026-05-04 11:50 26.93654 141.63004 38118 ft 462 kts 346°
2026-05-04 11:50 26.99967 141.61649 38116 ft 462 kts 346°
2026-05-04 11:51 27.06234 141.60303 38113 ft 462 kts 346°
2026-05-04 11:51 27.12547 141.58944 38120 ft 462 kts 345°
2026-05-04 11:52 27.18856 141.57586 38110 ft 462 kts 345°
2026-05-04 11:52 27.25165 141.56225 38111 ft 462 kts 345°
2026-05-04 11:53 27.31476 141.54863 38111 ft 462 kts 345°
2026-05-04 11:53 27.37737 141.53510 38113 ft 462 kts 345°
2026-05-04 11:55 27.62967 141.48041 38100 ft 461 kts 345°
2026-05-04 11:56 27.69224 141.46681 38100 ft 461 kts 345°
2026-05-04 11:56 27.75523 141.45310 38097 ft 461 kts 345°
2026-05-04 11:57 27.81820 141.43938 38105 ft 461 kts 345°
2026-05-04 11:57 27.88120 141.42564 38104 ft 461 kts 345°
2026-05-04 11:58 27.94420 141.41188 38095 ft 461 kts 345°
2026-05-04 11:58 28.00672 141.39820 38109 ft 461 kts 345°
2026-05-04 11:59 28.06962 141.38444 38098 ft 460 kts 345°
2026-05-04 11:59 28.13252 141.37066 38099 ft 460 kts 345°
2026-05-04 12:00 28.19544 141.35685 38094 ft 460 kts 345°
2026-05-04 12:00 28.25796 141.34312 38101 ft 461 kts 345°
2026-05-04 12:01 28.32023 141.32665 38076 ft 454 kts 332°
2026-05-04 12:02 28.51683 141.21501 38087 ft 452 kts 328°
2026-05-04 12:03 28.57295 141.18267 38079 ft 452 kts 328°
2026-05-04 12:03 28.62910 141.15026 38087 ft 453 kts 328°
2026-05-04 12:04 28.68528 141.11781 38079 ft 453 kts 328°
2026-05-04 12:04 28.74104 141.08555 38077 ft 453 kts 328°
2026-05-04 12:05 28.79722 141.05301 38090 ft 453 kts 328°
2026-05-04 12:05 28.85343 141.02042 38078 ft 453 kts 328°
2026-05-04 12:06 28.90966 140.98778 38079 ft 453 kts 328°
2026-05-04 12:06 28.96588 140.95510 38070 ft 453 kts 328°
2026-05-04 12:07 29.02171 140.92261 38073 ft 454 kts 328°
2026-05-04 12:07 29.07796 140.88983 38068 ft 454 kts 328°
2026-05-04 12:08 29.13419 140.85703 38065 ft 453 kts 328°
2026-05-04 12:08 29.19033 140.82423 38082 ft 453 kts 327°
2026-05-04 12:09 29.24601 140.79167 38071 ft 452 kts 327°
2026-05-04 12:09 29.30203 140.75887 38070 ft 452 kts 327°
2026-05-04 12:10 29.35807 140.72601 38065 ft 452 kts 327°
2026-05-04 12:10 29.41408 140.69313 38067 ft 452 kts 327°
2026-05-04 12:11 29.46962 140.66048 38069 ft 452 kts 327°
2026-05-04 12:11 29.52552 140.62759 38060 ft 451 kts 327°
2026-05-04 12:12 29.58134 140.59470 38070 ft 450 kts 327°
2026-05-04 12:12 29.63707 140.56182 38064 ft 450 kts 327°
2026-05-04 12:14 29.85959 140.43013 38057 ft 450 kts 327°
2026-05-04 12:15 29.91526 140.39709 38080 ft 449 kts 326°
2026-05-04 12:15 29.97040 140.36432 38056 ft 448 kts 326°
2026-05-04 12:16 30.02836 140.33662 38079 ft 458 kts 336°
2026-05-04 12:16 30.08916 140.31480 38055 ft 457 kts 336°
2026-05-04 12:17 30.15000 140.29307 38049 ft 457 kts 335°
2026-05-04 12:17 30.21032 140.27153 38051 ft 457 kts 335°
2026-05-04 12:18 30.27107 140.24982 38048 ft 457 kts 335°
2026-05-04 12:18 30.33184 140.22808 38053 ft 457 kts 335°
2026-05-04 12:19 30.39247 140.20635 38050 ft 456 kts 335°
2026-05-04 12:19 30.45310 140.18459 38047 ft 457 kts 335°
2026-05-04 12:20 30.51319 140.16301 38052 ft 455 kts 334°
2026-05-04 12:20 30.57362 140.14128 38040 ft 454 kts 334°
2026-05-04 12:21 30.63401 140.11953 38038 ft 454 kts 334°
2026-05-04 12:21 30.69437 140.09775 38059 ft 454 kts 334°
2026-05-04 12:22 30.75437 140.07609 38034 ft 454 kts 334°
2026-05-04 12:22 30.81473 140.05426 38029 ft 454 kts 334°
2026-05-04 12:23 30.87511 140.03240 38055 ft 454 kts 334°
2026-05-04 12:23 30.93560 140.01047 38223 ft 456 kts 334°
2026-05-04 12:24 30.96585 139.99949 38735 ft 454 kts 334°
2026-05-04 12:24 30.99604 139.98881 39117 ft 457 kts 337°
2026-05-04 12:24 31.02788 139.98306 39457 ft 466 kts 345°
2026-05-04 12:24 31.06000 139.97835 39758 ft 465 kts 344°
2026-05-04 12:25 31.09216 139.97348 40004 ft 467 kts 344°
2026-05-04 12:25 31.12399 139.96875 40039 ft 467 kts 344°
2026-05-04 12:25 31.18827 139.95923 40012 ft 465 kts 344°
2026-05-04 12:26 31.25244 139.94971 40015 ft 465 kts 344°
2026-05-04 12:26 31.31671 139.94016 40022 ft 466 kts 343°
2026-05-04 12:27 31.38062 139.93065 40014 ft 466 kts 343°
2026-05-04 12:27 31.44501 139.92106 40010 ft 466 kts 343°
2026-05-04 12:28 31.50940 139.91146 40012 ft 467 kts 343°
2026-05-04 12:28 31.57393 139.90182 40005 ft 468 kts 343°
2026-05-04 12:29 31.63802 139.89223 40000 ft 468 kts 343°
2026-05-04 12:29 31.70258 139.88256 40000 ft 467 kts 343°
2026-05-04 12:30 31.76709 139.87288 40003 ft 468 kts 343°
2026-05-04 12:30 31.83168 139.86319 39999 ft 468 kts 343°
2026-05-04 12:31 31.89579 139.85354 40019 ft 468 kts 342°
2026-05-04 12:31 31.96042 139.84381 39988 ft 469 kts 342°
2026-05-04 12:32 32.05743 139.82917 39980 ft 469 kts 342°
2026-05-04 12:33 32.12214 139.81939 39982 ft 469 kts 342°
2026-05-04 12:33 32.18657 139.80964 39980 ft 470 kts 342°
2026-05-04 12:34 32.25138 139.79981 39980 ft 470 kts 342°
2026-05-04 12:34 32.31624 139.78996 39981 ft 471 kts 342°
2026-05-04 12:35 32.38124 139.78008 39970 ft 471 kts 342°
2026-05-04 12:35 32.44581 139.77024 39967 ft 471 kts 342°
2026-05-04 12:36 32.51081 139.76030 39988 ft 471 kts 342°
2026-05-04 12:36 32.57591 139.75035 39960 ft 471 kts 342°
2026-05-04 12:37 32.64096 139.74038 39963 ft 472 kts 341°
2026-05-04 12:37 32.70565 139.73045 39960 ft 472 kts 341°
2026-05-04 12:38 32.77146 139.72355 39941 ft 489 kts 355°
2026-05-04 12:38 32.80554 139.73025 39968 ft 500 kts
2026-05-04 12:38 32.83969 139.73804 39937 ft 501 kts
2026-05-04 12:39 32.90816 139.75438 39960 ft 503 kts
2026-05-04 12:39 32.97633 139.77113 39960 ft 504 kts
2026-05-04 12:40 33.04502 139.78805 39955 ft 504 kts
2026-05-04 12:40 33.11360 139.80499 39599 ft 501 kts
2026-05-04 12:40 33.14785 139.81341 38763 ft 505 kts
2026-05-04 12:41 33.18234 139.82195 37728 ft 506 kts
2026-05-04 12:41 33.21682 139.83050 36828 ft 507 kts
2026-05-04 12:41 33.25137 139.83905 36076 ft 507 kts
2026-05-04 12:41 33.28540 139.84749 35324 ft 507 kts
2026-05-04 12:42 33.32004 139.85607 34467 ft 511 kts
2026-05-04 12:42 33.35511 139.86475 33480 ft 518 kts
2026-05-04 12:42 33.39054 139.87356 32381 ft 522 kts
2026-05-04 12:42 33.42626 139.88244 31409 ft 525 kts
2026-05-04 12:43 33.46205 139.89135 30473 ft 526 kts
2026-05-04 12:43 33.49799 139.90030 29453 ft 528 kts
2026-05-04 12:43 33.53383 139.90923 28568 ft 524 kts
2026-05-04 12:43 33.56916 139.91803 27877 ft 526 kts
2026-05-04 12:44 33.60491 139.92696 26930 ft 524 kts
2026-05-04 12:44 33.64046 139.93584 26179 ft 519 kts
2026-05-04 12:44 33.67565 139.94463 25414 ft 514 kts
2026-05-04 12:44 33.71058 139.95337 24630 ft 511 kts
2026-05-04 12:45 33.74529 139.96205 23839 ft 509 kts
2026-05-04 12:45 33.77985 139.97071 22985 ft 506 kts
2026-05-04 12:45 33.81418 139.97932 22154 ft 501 kts
2026-05-04 12:45 33.84769 139.98773 21405 ft 496 kts
2026-05-04 12:46 33.88128 139.99616 20668 ft 491 kts
2026-05-04 12:46 33.91451 140.00451 19933 ft 486 kts
2026-05-04 12:46 33.94749 140.01280 19212 ft 482 kts
2026-05-04 12:46 33.98014 140.01953 18393 ft 468 kts 353°
2026-05-04 12:47 34.01185 140.01782 17669 ft 449 kts 343°
2026-05-04 12:47 34.04273 140.01443 16993 ft 441 kts 343°
2026-05-04 12:47 34.07304 140.01077 16349 ft 434 kts 343°
2026-05-04 12:47 34.10279 140.00701 15729 ft 427 kts 343°
2026-05-04 12:48 34.13210 140.00324 15130 ft 421 kts 343°
2026-05-04 12:48 34.16113 140.00192 15017 ft 414 kts 348°
2026-05-04 12:48 34.18904 139.99857 14943 ft 406 kts 342°
2026-05-04 12:48 34.21739 139.99568 14889 ft 418 kts 352°
2026-05-04 12:49 34.24658 140.00186 14568 ft 435 kts 10°
2026-05-04 12:49 34.27435 140.01736 14203 ft 443 kts 22°
2026-05-04 12:49 34.30196 140.03272 13820 ft 429 kts
2026-05-04 12:49 34.33059 140.03827 13429 ft 409 kts 353°
2026-05-04 12:50 34.35875 140.03853 13131 ft 400 kts 347°
2026-05-04 12:50 34.38633 140.03606 13089 ft 399 kts 347°
2026-05-04 12:50 34.41396 140.03424 13111 ft 398 kts 347°
2026-05-04 12:50 34.44150 140.03231 13081 ft 395 kts 347°
2026-05-04 12:51 34.46894 140.03034 13074 ft 395 kts 347°
2026-05-04 12:51 34.49540 140.02609 13043 ft 381 kts 335°
2026-05-04 12:51 34.52101 140.01787 13054 ft 382 kts 336°
2026-05-04 12:51 34.54681 140.01014 13054 ft 382 kts 336°
2026-05-04 12:52 34.57264 140.00246 13058 ft 382 kts 336°
2026-05-04 12:52 34.59847 139.99480 13063 ft 382 kts 336°
2026-05-04 12:52 34.62419 139.98718 13048 ft 378 kts 336°
2026-05-04 12:52 34.64952 139.97966 13044 ft 373 kts 336°
2026-05-04 12:53 34.67470 139.97218 13044 ft 372 kts 336°
2026-05-04 12:53 34.69983 139.96469 13010 ft 371 kts 336°
2026-05-04 12:53 34.72501 139.95722 11908 ft 374 kts 338°
2026-05-04 12:53 34.74958 139.94995 11557 ft 362 kts 338°
2026-05-04 12:54 34.77341 139.94288 11418 ft 341 kts 339°
2026-05-04 12:54 34.79565 139.93627 11218 ft 318 kts 338°
2026-05-04 12:54 34.81679 139.92995 11021 ft 308 kts 338°
2026-05-04 12:54 34.83726 139.92384 10826 ft 298 kts 338°
2026-05-04 12:55 34.85703 139.91795 10670 ft 288 kts 338°
2026-05-04 12:55 34.87617 139.91223 10514 ft 278 kts 338°
2026-05-04 12:55 34.89466 139.90671 10371 ft 269 kts 338°
2026-05-04 12:55 34.91254 139.90138 10228 ft 260 kts 338°
2026-05-04 12:56 34.92979 139.89622 10091 ft 261 kts 338°
2026-05-04 12:56 34.94767 139.89084 9830 ft 268 kts 340°
2026-05-04 12:56 34.96590 139.88540 9500 ft 272 kts 341°
2026-05-04 12:56 34.98435 139.87991 9157 ft 273 kts 342°
2026-05-04 12:57 35.00274 139.87441 8842 ft 271 kts 342°
2026-05-04 12:57 35.02099 139.86894 8524 ft 269 kts 342°
2026-05-04 12:57 35.03907 139.86355 8227 ft 266 kts 343°
2026-05-04 12:57 35.05696 139.85819 7929 ft 264 kts 343°
2026-05-04 12:58 35.07472 139.85286 7618 ft 261 kts 343°
2026-05-04 12:58 35.09200 139.84768 7334 ft 258 kts 344°
2026-05-04 12:58 35.10930 139.84250 7049 ft 254 kts 344°
2026-05-04 12:58 35.12639 139.83738 6764 ft 252 kts 343°
2026-05-04 12:59 35.14330 139.83229 6487 ft 249 kts 343°
2026-05-04 12:59 35.15985 139.82732 6341 ft 240 kts 343°
2026-05-04 12:59 35.17578 139.82254 6233 ft 232 kts 343°
2026-05-04 12:59 35.19117 139.81791 6121 ft 224 kts 343°
2026-05-04 13:00 35.20595 139.81343 6029 ft 214 kts 343°
2026-05-04 13:00 35.22024 139.80889 5840 ft 210 kts 343°
2026-05-04 13:00 35.23431 139.80441 5605 ft 207 kts 343°
2026-05-04 13:00 35.24787 139.80011 5423 ft 202 kts 343°
2026-05-04 13:01 35.26133 139.79584 5196 ft 198 kts 343°
2026-05-04 13:01 35.27459 139.79164 4982 ft 195 kts 343°
2026-05-04 13:01 35.28740 139.78758 4778 ft 185 kts 341°
2026-05-04 13:01 35.29956 139.78379 4583 ft 176 kts 340°
2026-05-04 13:02 35.31143 139.78094 4380 ft 176 kts 355°
2026-05-04 13:02 35.32341 139.78545 4142 ft 187 kts 20°
2026-05-04 13:02 35.33152 139.79130 3969 ft 187 kts 22°
2026-05-04 13:02 35.34266 139.79962 3712 ft 188 kts 22°
2026-05-04 13:03 35.35361 139.80790 3487 ft 181 kts 22°
2026-05-04 13:03 35.36411 139.81591 3243 ft 175 kts 22°
2026-05-04 13:03 35.37429 139.82371 3011 ft 170 kts 22°
2026-05-04 13:03 35.38419 139.83133 2785 ft 165 kts 21°
2026-05-04 13:04 35.39364 139.83864 2646 ft 156 kts 21°
2026-05-04 13:04 35.40249 139.84548 2541 ft 151 kts 21°
2026-05-04 13:04 35.41177 139.84963 2428 ft 136 kts 355°
2026-05-04 13:04 35.42118 139.85004 2356 ft 135 kts 355°
2026-05-04 13:05 35.43061 139.85042 2277 ft 136 kts 355°
2026-05-04 13:05 35.44011 139.85048 2181 ft 137 kts 349°
2026-05-04 13:05 35.44921 139.84736 1981 ft 136 kts 335°
2026-05-04 13:05 35.45748 139.84189 1779 ft 135 kts 330°
2026-05-04 13:06 35.46551 139.83618 1586 ft 129 kts 330°
2026-05-04 13:06 35.47273 139.83105 1422 ft 114 kts 330°
2026-05-04 13:06 35.47942 139.82630 1309 ft 109 kts 332°
2026-05-04 13:06 35.48577 139.82177 1139 ft 107 kts 331°
2026-05-04 13:07 35.49223 139.81712 965 ft 107 kts 332°
2026-05-04 13:07 35.49868 139.81259 845 ft 106 kts 331°
2026-05-04 13:07 35.50503 139.80806 718 ft 105 kts 334°
2026-05-04 13:07 35.51133 139.80356 601 ft 106 kts 334°
2026-05-04 13:08 35.51790 139.79894 450 ft 112 kts 335°
2026-05-04 13:08 35.52459 139.79419 333 ft 108 kts 335°
2026-05-04 13:08 35.53107 139.78956 212 ft 109 kts 336°
2026-05-04 13:08 35.53753 139.78499 57 ft 109 kts 334°
2026-05-04 13:09 35.54340 139.78084 24 ft 71 kts 329°
2026-05-04 13:09 35.54663 139.77851 25 ft 38 kts 326°
2026-05-04 13:09 35.54847 139.77725 25 ft 27 kts 332°
2026-05-04 13:09 35.55032 139.77640 24 ft 27 kts 349°
2026-05-04 13:10 35.55154 139.77633 26 ft 14 kts 19°
2026-05-04 13:10 35.55189 139.77718 27 ft 12 kts 108°
2026-05-04 13:10 35.55111 139.77792 25 ft 17 kts 152°
2026-05-04 13:10 35.54993 139.77875 24 ft 22 kts 150°
2026-05-04 13:11 35.54843 139.77982 25 ft 27 kts 150°
2026-05-04 13:11 35.54728 139.78064 24 ft 30 kts 150°
2026-05-04 13:11 35.54515 139.78214 24 ft 24 kts 150°
2026-05-04 13:11 35.54375 139.78314 24 ft 23 kts 150°
2026-05-04 13:12 35.54248 139.78404 27 ft 19 kts 150°
2026-05-04 13:12 35.54118 139.78496 24 ft 25 kts 150°
2026-05-04 13:12 35.53969 139.78602 24 ft 25 kts 150°
2026-05-04 13:12 35.53860 139.78680 27 ft 13 kts 150°
2026-05-04 13:13 35.53791 139.78735 26 ft 11 kts 129°
2026-05-04 13:13 35.53783 139.78789 24 ft 9 kts 78°
2026-05-04 13:13 35.53778 139.78856 23 ft 7 kts 121°
2026-05-04 13:13 35.53728 139.78902 21 ft 11 kts 152°
2026-05-04 13:14 35.53681 139.78952 21 ft 3 kts 81°
2026-05-04 13:14 35.53696 139.78990 26 ft 6 kts 59°
2026-05-04 13:14 35.53708 139.79015 24 ft 3 kts 59°
2026-05-04 13:14 35.53717 139.79034 23 ft 0 kts 59°